Location: ??
(35.5052°N, 139.7262°E)
Time: 00:47:49
(UTC+00:00)

COSMOS 1275 DEB - Visible Passes

Search period start: 15 August 2022 00:00
Search period end: 25 August 2022 00:00
Orbit: 915 x 974 km, 82.9° (Epoch: 12 August)

Date Brightness Start Highest point End Pass type
(mag) Time Alt. Az. Time Alt. Az. Time Alt. Az.
16 Aug ? 09:55:08 10° NNW 10:00:43 43° W 10:06:16 10° SSW visible
17 Aug ? 10:11:44 10° NNW 10:16:37 27° W 10:21:27 10° SW visible
18 Aug ? 10:28:50 10° NW 10:32:24 17° W 10:35:58 10° WSW visible
22 Aug ? 09:47:48 10° NW 09:52:11 22° W 09:56:33 10° SW visible
23 Aug ? 10:05:21 10° NW 10:07:56 13° W 10:10:31 10° WSW visible
